Regional Weather Roundup
Issued by NWS

Home | Current Version | Previous Version | Text Only | Print | Product List | Glossary On
Versions: 1 2 3 4 5 6 7 8 9 10 11 12 13 14 15 16 17 18 19 20 21 22 23 24 25 26 27 28 29 30 31 32 33 34 35 36 37 38 39 40 41 42 43 44 45 46 47 48 49 50
000
ASHW40 PHFO 052210
RWRHI

WEATHER ROUNDUP FOR HAWAII
NATIONAL WEATHER SERVICE HONOLULU HI
1200 PM HST SUN JUL 05 2015

THIS IS AN AUTOMATED REPORT THAT HAS NOT BEEN QUALITY CONTROLLED.

NOTE..."FAIR" INDICATES FEW OR NO CLOUDS BELOW 12,000 FEET WITH NO
SIGNIFICANT WEATHER AND/OR OBSTRUCTIONS TO VISIBILITY.

* - THESE SITES REPORT LIMITED FIELDS

HIZ001>004-052300-
KAUAI-NIIHAU-

CITY           SKY/WX    TMP DP  RH WIND       PRES   REMARKS
LIHUE APT      MOSUNNY   84  68  58 NE10      30.00F
PORT ALLEN*    NOT AVBL
POIPU*           N/A     84 N/A N/A NE9G20      N/A
PRINCEVILLE*     N/A     84 N/A N/A MISG        N/A
KOKOLE POINT*  NOT AVBL
MOLOAA DAIRY*  NOT AVBL
WAIMEA HTS*    NOT AVBL
PUU OPAE*      NOT AVBL
PUU LUA*       NOT AVBL
MAKAHA RIDGE*  NOT AVBL
$$

HIZ005>011-052300-
OAHU-

CITY           SKY/WX    TMP DP  RH WIND       PRES   REMARKS
HONOLULU       MOSUNNY   86  67  52 NE12G18   29.96S
KALAELOA       MOSUNNY   88  64  44 VRB7      29.97S
KANEOHE MCB    SUNNY     85  70  60 NE9       29.96S
WHEELER FIELD  NOT AVBL
BELLOWS*       NOT AVBL
KAHUKU*        NOT AVBL
WHEELER*       NOT AVBL
WAIANAE HARBOR NOT AVBL
DILLINGHAM*      N/A     93  66  40 MISG        N/A  HX  96
KAHUKU TRN*      N/A     73  57  56 E8G20       N/A
KAWAILOA*        N/A     79  64  61 E12G22      N/A
KII*             N/A     82  73  74 E12         N/A
MAKUA RANGE*     N/A     88  66  48 SW6G13      N/A  HX  90
OAHU FOREST NW NOT AVBL
SCHOFIELD BRK*   N/A     64  45  48 MISG        N/A
SCHOFIELD S*   NOT AVBL
WAIANAE VLY*   NOT AVBL
KUAOKALA*      NOT AVBL
HONOULIUULI*   NOT AVBL
MOKUOLOE IS*   NOT AVBL
PALEHUA*       NOT AVBL
WAIAWA PHB*    NOT AVBL
$$

HIZ012>013-052300-
MOLOKAI-

CITY           SKY/WX    TMP DP  RH WIND       PRES   REMARKS
MOLOKAI AIRPT  MOSUNNY   83  68  60 N13G22    29.97F
KALAUPAPA      NOT AVBL
MAKAPULAPAI*   NOT AVBL
MOLOKAI 1*     NOT AVBL
PUU ALII*      NOT AVBL
$$

HIZ016-052300-
KAHOOLAWE-

CITY           SKY/WX    TMP DP  RH WIND       PRES   REMARKS
KAHOOLAWE*     NOT AVBL
HAKIOAWA*      NOT AVBL
HONOKANAIA*      N/A     81  69  65 E17G26    29.97S
KANELOA*         N/A     79  70  73 E17G25    30.03S
KEALIALALO*    NOT AVBL
LUA MAKIKA*    NOT AVBL
$$

HIZ014>015-052300-
LANAI-

CITY           SKY/WX    TMP DP  RH WIND       PRES   REMARKS
LANAI CITY     CLOUDY    78  67  68 VRB5      30.03R
LANAI 1*       NOT AVBL
$$

HIZ017>028-052300-
MAUI-

CITY           SKY/WX    TMP DP  RH WIND       PRES   REMARKS
KAHULUI        MOSUNNY   87  70  56 NE22      29.97S HX  92
KAPALUA-W MAUI MOSUNNY   86  68  54 NE20G26   29.97
HANA AIRPORT   MOSUNNY   84  72  65 NE9       30.01S
HANA*          NOT AVBL
HALEAKALA SUMM   N/A     57  12  17 NE15G33     N/A
MAALAEA BAY*   NOT AVBL
HALEAKALA*     NOT AVBL
KAUPO GAP*     NOT AVBL
KULA 1*          N/A     67  59  76 NW6         N/A
$$

HIZ023>026-052300-
BIG ISLAND OF HAWAII COAST AND LOWER SLOPES-

CITY           SKY/WX    TMP DP  RH WIND       PRES   REMARKS
KAILUA KONA    MOSUNNY   86  68  54 SW9       29.94R
HILO           PTSUNNY   84  70  62 N8        29.97S
HONOKAA*       NOT AVBL
KAWAIHAE MWT*  NOT AVBL
KAWAIHAE*        N/A     81 N/A N/A SW13        N/A
SOUTH POINT*   NOT AVBL
UPOLU AIRPORT* NOT AVBL
KAMUELA*       CLOUDY    75  63  64 N14       30.07S
HAKALAU*         N/A     68  53  58 NE6G12      N/A
KALOKO-HONOKO* NOT AVBL
PALI 2*          N/A     79  63  57 NE21G32     N/A
KEALAKOMO*       N/A     79  57  47 NE15G25     N/A
KAUPULEHU*     NOT AVBL
KAPAPALA*        N/A     80  69  67 E9G16       N/A
LOWER KAHUKU*  NOT AVBL
PUHE CS*       NOT AVBL
PUHO CS*       NOT AVBL
PTA KEAMUKU*     N/A     73  63  68 CALM        N/A
WAIKOLOA*      NOT AVBL
$$

HIZ027>028-052300-
BIG ISLAND OF HAWAII INTERIOR AND SUMMMITS-

CITY           SKY/WX    TMP DP  RH WIND       PRES   REMARKS
BRADSHAW FIELD SUNNY     73  58  60 W12G18    30.28S
MK VISITOR CEN   N/A      0   0 100 MISG        N/A
MAUNA KEA*       N/A     46   7  19 VRB3        N/A
MAUNA LOA*       N/A     57  12  17 MISG        N/A
MAUNA LOA 1*   NOT AVBL
PTA KIPUKA*      N/A     72  55  56 NW9G17      N/A
PTA RANGE 17*    N/A     48  36  61 NW12G21     N/A
PTA WEST*        N/A     75  63  64 N9G18       N/A
NENE CABIN*    NOT AVBL
AHUMOA*        NOT AVBL
PTA PORTABLE*  NOT AVBL
PUU MALI*        N/A     68  45  42 NE21G29     N/A
$$

HIC003-052300-
NORTHWEST ISLANDS-

CITY           SKY/WX    TMP DP  RH WIND       PRES   REMARKS
MIDWAY ISLAND  SUNNY     81  70  69 NE10      30.00S
MIDWAY NOS*    NOT AVBL
FRENCH FRIGATE NOT AVBL
$$

PHZ110>124-180-052300-
BUOY REPORTS

STATION/POSITION TIME  TEMP    WIND        PRES    WAVE   SWELL
                       AIR SEA DIR/SP/G            HT/PER HT/DIR
                 (UTC) (F)     (DEG/KT/KT) (MB)    (FT/S) (FT/D)
BUOY 51001       NOT AVBL
BUOY 51101       2200   80 80  140/ 10/ 12 1015.4R   5/13   5/160
BUOY 51100       NOT AVBL
BUOY 51002       2200   80 81  100/ 14/ 16 1013.4F   6/17   5/170
BUOY 51003       2100   81 82   80/ 10/ 12 1014.7S   5/12   5
BUOY 51004       2051   79 80   40/ 14/ 16 1013.2S   6/ 8   5/100
BARBERS PT BUOY  NOT AVBL
WAIMEA BAY BUOY  2100      79                N/A     3/11   2/290
KAILUA BAY BUOY  2100      80                N/A     4/ 6   2/150
LANAI BUOY       NOT AVBL
BARBERS PT 2     2200      80                N/A     4/17   3/200
PAUWELA MAUI     2100      79                N/A     3/12   2/320
HILO             2100      81                N/A     4/ 9   2/110
KANEOHE BAY BUOY 2100      80                N/A     3/ 8
HANALEI KAUAI    2200      80                N/A     3/ 8   2/300
KAHULUI HARBOR   2100   80 82   50/  8/ 16 1014.7S
HONOLULU HARBOR  2100   83 81   50/  7/ 11 1014.7F
KILO NALU        NOT AVBL
HILO HARBOR      2100   78 77  360/  5/  6 1014.6F
MOKUOLOE         2100      83              1015.4S
NAWILIWILI       2100   80 82   80/  8/ 11 1015.6F
WHOTS BUOY       NOT AVBL
BUOY 51028       NOT AVBL
$$

......................KEY........................................
  SKY/WX - SKY CONDITIONS/PRESENT WEATHER
  TMP    - TEMPERATURE IN FAHRENHEIT
  DWPT   - DEWPOINT IN FAHRENHEIT
  RH     - RELATIVE HUMIDITY IN PERCENT
  WIND   - DIRECTION AND SPEED /MPH FOR ISLANDS...KTS FOR BUOYS/
  PRES   - MEAN SEA LEVEL PRESSURE IN INCHES OF HG
  VSB    - VISIBILITY IN MILES
  HX     - HEAT INDEX
  WCI    - WIND CHILL INDEX
  VRB    - VARIABLE WIND DIRECTION
  N/A    - NOT AVAILABLE


USA.gov is the U.S. government's official web portal to all federal, state and local government web resources and services.